Flag for Germany Weather past 2 weeks in Sankt Ingbert, Saarland, Germany

Now
93 °F

Passing clouds.


Feels Like: 93 °F
Forecast: 71 / 93 °F
Wind: 2 mph from East

Location: Saarbruecken / Ensheim

Current Time: Jul 3, 2015 at 8:05:46 PM

Latest Report: Jul 3, 2015 at 7:00 PM


Visibility: 19 mi

Pressure: 30.10 "Hg

Humidity: 32%

Dew point: 59 °F

Location of Sankt IngbertLocation

Historic Weather in Sankt Ingbert — Graph

°F

Sankt Ingbert temperature yesterday

Maximum temperature yesterday: 95 °F (at 6:00 PM)
Minimum temperature yesterday: 67 °F (at 5:00 AM)
Average temperature yesterday: 82 °F

Past Weeks' High & Low Weather Summary

 TemperatureHumidityPressure
High95 °F (Jul 2, 6:00 PM)99% (Jun 22, 2:00 AM)30.23 "Hg (Jun 22, 2:00 AM)
Low43 °F (Jun 24, 5:00 AM)27% (Jul 1, 6:00 PM)29.76 "Hg (Jun 22, 11:00 PM)
Average65 °F67%30.09 "Hg
* Reported Jun 18 7:00 PM — Jul 3 7:00 PM, Sankt Ingbert, Weather by CustomWeather, © 2015

Note: Actual official high and low records may vary slightly from our data, if they occured in-between our weather recording intervals... More about our weather records

Advertising

Sankt Ingbert weather history for previous 24 hours

 ConditionsComfort  
Time TempWeatherWind HumidityBarometerVisibility
7:00 PM
Fri, Jul 3
93 °FPassing clouds.2 mph32%30.10 "Hg19 mi
6:00 PM93 °FScattered clouds.3 mph29%30.10 "Hg19 mi
5:00 PM93 °FScattered clouds.2 mph28%30.12 "Hg19 mi
4:00 PM93 °FScattered clouds.3 mph31%30.14 "Hg19 mi
3:00 PM93 °FScattered clouds.2 mph33%30.15 "Hg19 mi
2:00 PM90 °FPassing clouds.2 mph36%30.16 "Hg19 mi
1:00 PM89 °FPassing clouds.2 mph41%30.17 "Hg19 mi
12:00 PM88 °FPassing clouds.1 mph51%30.18 "Hg19 mi
11:00 AM84 °FPassing clouds.2 mph54%30.19 "Hg19 mi
10:00 AM82 °FPassing clouds.1 mph60%30.20 "Hg16 mi
9:00 AM79 °FPassing clouds.2 mph65%30.20 "Hg16 mi
8:00 AM75 °FPassing clouds.1 mph74%30.20 "Hg16 mi
7:00 AM71 °FPassing clouds.1 mph81%30.20 "Hg16 mi
6:00 AM67 °FPassing clouds.2 mph85%30.19 "Hg12 mi
5:00 AM68 °FPassing clouds.1 mph82%30.18 "Hg16 mi
4:00 AM69 °FPassing clouds.2 mph81%30.17 "Hg16 mi
3:00 AM71 °FPassing clouds.1 mph74%30.16 "Hg22 mi
2:00 AM73 °FOvercast.1 mph66%30.14 "Hg22 mi
1:00 AM77 °FOvercast.No wind63%30.13 "Hg22 mi
12:00 AM81 °FOvercast.2 mph53%30.11 "Hg25 mi
11:00 PM
Thu, Jul 2
80 °FOvercast.2 mph62%30.10 "Hg25 mi
10:00 PM83 °FOvercast.1 mph53%30.09 "Hg28 mi
9:00 PM88 °FPassing clouds.1 mph43%30.06 "Hg25 mi
8:00 PM91 °FPassing clouds.3 mph35%30.04 "Hg25 mi
Weather by CustomWeather, © 2015

See weather overviewHow to use our weather pages